Time,TemperatureF,DewpointF,PressureIn,WindDirection,WindDirectionDegrees,WindSpeedMPH,WindSpeedGustMPH,Humidity,HourlyPrecipIn,Conditions,Clouds,dailyrainin,SoftwareType,DateUTC
2013-06-17 00:01:00,72.6,67.2,30.06,South,169,0.0,4.0,83,0.00,,---,0.00,VWS V14.01,2013-06-17 04:01:00,
2013-06-17 00:02:00,72.6,67.2,30.06,SSE,152,0.0,0.0,83,0.00,,---,0.00,VWS V14.01,2013-06-17 04:02:00,
2013-06-17 00:07:00,72.5,67.4,30.06,SE,145,0.0,0.0,84,0.00,,---,0.00,VWS V14.01,2013-06-17 04:07:00,
2013-06-17 00:12:00,72.4,67.3,30.06,South,174,0.0,0.0,84,0.00,,---,0.00,VWS V14.01,2013-06-17 04:12:00,
2013-06-17 00:17:00,72.3,67.2,30.06,SSE,159,0.0,0.0,84,0.00,,---,0.00,VWS V14.01,2013-06-17 04:17:00,
2013-06-17 00:22:00,72.1,67.0,30.06,SE,145,0.0,0.0,84,0.00,,---,0.00,VWS V14.01,2013-06-17 04:22:00,
2013-06-17 00:27:00,72.1,67.3,30.06,South,176,6.0,6.0,85,0.00,,---,0.00,VWS V14.01,2013-06-17 04:27:00,
2013-06-17 00:32:00,72.0,67.2,30.06,South,172,3.0,10.0,85,0.00,,---,0.00,VWS V14.01,2013-06-17 04:32:00,
2013-06-17 00:37:00,71.9,67.2,30.06,South,184,5.0,6.0,85,0.00,,---,0.00,VWS V14.01,2013-06-17 04:37:00,
2013-06-17 00:42:00,71.8,67.1,30.06,SSE,158,4.0,6.0,85,0.00,,---,0.00,VWS V14.01,2013-06-17 04:42:00,
2013-06-17 00:47:00,71.7,66.9,30.06,SSE,158,4.0,8.0,85,0.00,,---,0.00,VWS V14.01,2013-06-17 04:47:00,
2013-06-17 00:52:00,71.6,66.9,30.06,SSW,197,5.0,6.0,85,0.00,,---,0.00,VWS V14.01,2013-06-17 04:52:00,
2013-06-17 00:57:00,71.5,66.8,30.06,SW,226,4.0,9.0,85,0.00,,---,0.00,VWS V14.01,2013-06-17 04:57:00,
2013-06-17 01:02:00,71.6,66.9,30.06,SSE,148,3.0,3.0,85,0.00,,---,0.00,VWS V14.01,2013-06-17 05:02:00,
2013-06-17 01:07:00,71.5,67.1,30.06,South,173,3.0,7.0,86,0.00,,---,0.00,VWS V14.01,2013-06-17 05:07:00,
2013-06-17 01:12:00,71.5,67.1,30.06,SSW,213,4.0,6.0,86,0.00,,---,0.00,VWS V14.01,2013-06-17 05:12:00,
2013-06-17 01:17:00,71.5,67.1,30.06,SW,215,4.0,7.0,86,0.00,,---,0.00,VWS V14.01,2013-06-17 05:17:00,
2013-06-17 01:22:00,71.5,66.8,30.06,SSW,207,3.0,7.0,85,0.00,,---,0.00,VWS V14.01,2013-06-17 05:22:00,
2013-06-17 01:27:00,71.5,67.1,30.06,SSE,150,5.0,7.0,86,0.00,,---,0.00,VWS V14.01,2013-06-17 05:27:00,
2013-06-17 01:32:00,71.5,67.1,30.06,SSW,193,6.0,8.0,86,0.00,,---,0.00,VWS V14.01,2013-06-17 05:32:00,
2013-06-17 01:37:00,71.6,66.9,30.06,SW,221,2.0,6.0,85,0.00,,---,0.00,VWS V14.01,2013-06-17 05:37:00,
2013-06-17 01:42:00,71.6,66.9,30.06,SSW,201,7.0,7.0,85,0.00,,---,0.00,VWS V14.01,2013-06-17 05:42:00,
2013-06-17 01:47:00,71.6,66.9,30.06,SSW,200,5.0,6.0,85,0.00,,---,0.00,VWS V14.01,2013-06-17 05:47:00,
2013-06-17 01:52:00,71.6,66.9,30.06,South,180,4.0,9.0,85,0.00,,---,0.00,VWS V14.01,2013-06-17 05:52:00,
2013-06-17 01:57:00,71.7,66.6,30.06,SSW,201,9.0,9.0,84,0.00,,---,0.00,VWS V14.01,2013-06-17 05:57:00,
2013-06-17 02:02:00,71.7,66.6,30.06,WSW,242,2.0,6.0,84,0.00,,---,0.00,VWS V14.01,2013-06-17 06:02:00,
2013-06-17 02:07:00,71.7,66.6,30.06,SSW,197,4.0,9.0,84,0.00,,---,0.00,VWS V14.01,2013-06-17 06:07:00,
2013-06-17 02:12:00,71.7,66.6,30.06,SW,225,5.0,5.0,84,0.00,,---,0.00,VWS V14.01,2013-06-17 06:12:00,
2013-06-17 02:17:00,71.7,66.6,30.05,South,191,2.0,5.0,84,0.00,,---,0.00,VWS V14.01,2013-06-17 06:17:00,
2013-06-17 02:22:00,71.5,66.4,30.05,SSW,198,1.0,5.0,84,0.00,,---,0.00,VWS V14.01,2013-06-17 06:22:00,
2013-06-17 02:27:00,71.5,66.4,30.05,SSE,152,4.0,5.0,84,0.00,,---,0.00,VWS V14.01,2013-06-17 06:27:00,
2013-06-17 02:32:00,71.4,66.3,30.05,SW,214,4.0,5.0,84,0.00,,---,0.00,VWS V14.01,2013-06-17 06:32:00,
2013-06-17 02:37:00,71.4,66.3,30.05,SSW,204,4.0,4.0,84,0.00,,---,0.00,VWS V14.01,2013-06-17 06:37:00,
2013-06-17 02:42:00,71.2,66.1,30.05,SSE,162,3.0,7.0,84,0.00,,---,0.00,VWS V14.01,2013-06-17 06:42:00,
2013-06-17 02:47:00,71.2,66.1,30.05,South,184,2.0,6.0,84,0.00,,---,0.00,VWS V14.01,2013-06-17 06:47:00,
2013-06-17 02:52:00,71.0,65.9,30.05,SW,214,1.0,6.0,84,0.00,,---,0.00,VWS V14.01,2013-06-17 06:52:00,
2013-06-17 02:57:00,71.0,66.3,30.05,SSW,208,2.0,4.0,85,0.00,,---,0.00,VWS V14.01,2013-06-17 06:57:00,
2013-06-17 03:02:00,70.9,66.2,30.05,SW,219,2.0,3.0,85,0.00,,---,0.00,VWS V14.01,2013-06-17 07:02:00,
2013-06-17 03:07:00,70.7,66.0,30.05,SSE,159,0.0,3.0,85,0.00,,---,0.00,VWS V14.01,2013-06-17 07:07:00,
2013-06-17 03:12:00,70.5,66.1,30.05,SSW,200,2.0,4.0,86,0.00,,---,0.00,VWS V14.01,2013-06-17 07:12:00,
2013-06-17 03:17:00,70.4,66.0,30.04,SSW,193,2.0,4.0,86,0.00,,---,0.00,VWS V14.01,2013-06-17 07:17:00,
2013-06-17 03:22:00,70.3,65.9,30.04,South,176,2.0,3.0,86,0.00,,---,0.00,VWS V14.01,2013-06-17 07:22:00,
2013-06-17 03:27:00,70.2,65.8,30.04,SSW,200,1.0,3.0,86,0.00,,---,0.00,VWS V14.01,2013-06-17 07:27:00,
2013-06-17 03:32:00,70.1,65.7,30.04,SSE,167,3.0,3.0,86,0.00,,---,0.00,VWS V14.01,2013-06-17 07:32:00,
2013-06-17 03:37:00,70.1,65.7,30.04,South,180,0.0,4.0,86,0.00,,---,0.00,VWS V14.01,2013-06-17 07:37:00,
2013-06-17 03:42:00,70.0,65.6,30.04,SSW,196,2.0,3.0,86,0.00,,---,0.00,VWS V14.01,2013-06-17 07:42:00,
2013-06-17 03:47:00,69.9,65.9,30.04,South,186,2.0,3.0,87,0.00,,---,0.00,VWS V14.01,2013-06-17 07:47:00,
2013-06-17 03:53:00,69.9,65.9,30.04,SSW,201,2.0,5.0,87,0.00,,---,0.00,VWS V14.01,2013-06-17 07:53:00,
2013-06-17 03:58:00,69.8,65.8,30.04,SSW,205,1.0,5.0,87,0.00,,---,0.00,VWS V14.01,2013-06-17 07:58:00,
2013-06-17 04:03:00,69.8,65.8,30.04,SSW,203,1.0,4.0,87,0.00,,---,0.00,VWS V14.01,2013-06-17 08:03:00,
2013-06-17 04:08:00,69.6,65.6,30.05,SE,144,1.0,4.0,87,0.00,,---,0.00,VWS V14.01,2013-06-17 08:08:00,
2013-06-17 04:13:00,69.5,65.5,30.05,SSW,198,2.0,5.0,87,0.00,,---,0.00,VWS V14.01,2013-06-17 08:13:00,
2013-06-17 04:18:00,69.5,65.5,30.05,South,188,4.0,4.0,87,0.00,,---,0.00,VWS V14.01,2013-06-17 08:18:00,
2013-06-17 04:23:00,69.4,65.4,30.05,SW,222,4.0,5.0,87,0.00,,---,0.00,VWS V14.01,2013-06-17 08:23:00,
2013-06-17 04:28:00,69.4,65.7,30.05,SW,226,2.0,4.0,88,0.00,,---,0.00,VWS V14.01,2013-06-17 08:28:00,
2013-06-17 04:33:00,69.3,65.6,30.05,SW,226,1.0,4.0,88,0.00,,---,0.00,VWS V14.01,2013-06-17 08:33:00,
2013-06-17 04:38:00,69.3,65.3,30.05,SSW,207,2.0,5.0,87,0.00,,---,0.00,VWS V14.01,2013-06-17 08:38:00,
2013-06-17 04:43:00,69.3,65.3,30.05,SW,228,3.0,4.0,87,0.00,,---,0.00,VWS V14.01,2013-06-17 08:43:00,
2013-06-17 04:48:00,69.3,65.6,30.06,South,188,2.0,5.0,88,0.00,,---,0.00,VWS V14.01,2013-06-17 08:48:00,
2013-06-17 04:53:00,69.4,65.4,30.06,WSW,248,5.0,6.0,87,0.00,,---,0.00,VWS V14.01,2013-06-17 08:53:00,
2013-06-17 04:58:00,69.4,65.4,30.06,SW,218,5.0,6.0,87,0.00,,---,0.00,VWS V14.01,2013-06-17 08:58:00,
2013-06-17 05:03:00,69.4,65.4,30.06,SW,222,4.0,6.0,87,0.00,,---,0.00,VWS V14.01,2013-06-17 09:03:00,
2013-06-17 05:08:00,69.3,65.3,30.06,SSW,194,3.0,6.0,87,0.00,,---,0.00,VWS V14.01,2013-06-17 09:08:00,
2013-06-17 05:13:00,69.3,65.3,30.05,SSE,165,2.0,5.0,87,0.00,,---,0.00,VWS V14.01,2013-06-17 09:13:00,
2013-06-17 05:18:00,69.2,65.2,30.05,SSW,211,0.0,5.0,87,0.00,,---,0.00,VWS V14.01,2013-06-17 09:18:00,
2013-06-17 05:23:00,69.1,65.4,30.05,SW,222,1.0,4.0,88,0.00,,---,0.00,VWS V14.01,2013-06-17 09:23:00,
2013-06-17 05:28:00,69.1,65.4,30.05,SSE,167,1.0,5.0,88,0.00,,---,0.00,VWS V14.01,2013-06-17 09:28:00,
2013-06-17 05:33:00,69.0,65.3,30.04,SW,214,6.0,7.0,88,0.00,,---,0.00,VWS V14.01,2013-06-17 09:33:00,
2013-06-17 05:38:00,69.0,65.3,30.04,SSW,212,4.0,6.0,88,0.00,,---,0.00,VWS V14.01,2013-06-17 09:38:00,
2013-06-17 05:43:00,68.9,65.2,30.04,SW,224,2.0,5.0,88,0.00,,---,0.00,VWS V14.01,2013-06-17 09:43:00,
2013-06-17 05:48:00,68.9,65.2,30.04,SSW,212,1.0,4.0,88,0.00,,---,0.00,VWS V14.01,2013-06-17 09:48:00,
2013-06-17 05:53:00,68.9,65.2,30.04,SSW,210,3.0,4.0,88,0.00,,---,0.00,VWS V14.01,2013-06-17 09:53:00,
2013-06-17 05:58:00,68.9,64.9,30.04,SSE,165,2.0,4.0,87,0.00,,---,0.00,VWS V14.01,2013-06-17 09:58:00,
2013-06-17 06:03:00,68.9,64.9,30.03,SSW,211,1.0,3.0,87,0.00,,---,0.00,VWS V14.01,2013-06-17 10:03:00,
2013-06-17 06:08:00,68.9,64.9,30.03,South,191,0.0,3.0,87,0.00,,---,0.00,VWS V14.01,2013-06-17 10:08:00,
2013-06-17 06:13:00,68.8,64.8,30.04,South,185,2.0,3.0,87,0.00,,---,0.00,VWS V14.01,2013-06-17 10:13:00,
2013-06-17 06:18:00,68.8,65.1,30.03,SSW,197,3.0,4.0,88,0.00,,---,0.00,VWS V14.01,2013-06-17 10:18:00,
2013-06-17 06:23:00,68.8,64.8,30.03,South,187,1.0,4.0,87,0.00,,---,0.00,VWS V14.01,2013-06-17 10:23:00,
2013-06-17 06:28:00,68.8,64.8,30.03,South,180,2.0,2.0,87,0.00,,---,0.00,VWS V14.01,2013-06-17 10:28:00,
2013-06-17 06:33:00,68.9,64.9,30.03,SSE,159,1.0,3.0,87,0.00,,---,0.00,VWS V14.01,2013-06-17 10:33:00,
2013-06-17 06:38:00,68.9,64.9,30.03,SSE,160,3.0,4.0,87,0.00,,---,0.00,VWS V14.01,2013-06-17 10:38:00,
2013-06-17 06:43:00,69.0,65.0,30.03,SSE,160,1.0,4.0,87,0.00,,---,0.00,VWS V14.01,2013-06-17 10:43:00,
2013-06-17 06:48:00,69.0,64.6,30.03,SE,134,2.0,3.0,86,0.00,,---,0.00,VWS V14.01,2013-06-17 10:48:00,
2013-06-17 06:53:00,69.0,64.6,30.03,SSE,165,2.0,4.0,86,0.00,,---,0.00,VWS V14.01,2013-06-17 10:53:00,
2013-06-17 06:58:00,69.0,64.6,30.03,SSW,205,1.0,4.0,86,0.00,,---,0.00,VWS V14.01,2013-06-17 10:58:00,
2013-06-17 07:03:00,69.1,64.7,30.04,SSW,201,3.0,4.0,86,0.00,,---,0.00,VWS V14.01,2013-06-17 11:03:00,
2013-06-17 07:08:00,69.0,64.6,30.05,SW,221,6.0,7.0,86,0.00,,---,0.00,VWS V14.01,2013-06-17 11:08:00,
2013-06-17 07:13:00,69.1,64.7,30.04,SSW,194,4.0,6.0,86,0.00,,---,0.00,VWS V14.01,2013-06-17 11:13:00,
2013-06-17 07:18:00,69.2,64.5,30.04,SSW,211,3.0,8.0,85,0.00,,---,0.00,VWS V14.01,2013-06-17 11:18:00,
2013-06-17 07:24:00,69.2,64.5,30.05,SSW,195,4.0,7.0,85,0.00,,---,0.00,VWS V14.01,2013-06-17 11:24:00,
2013-06-17 07:29:00,69.3,64.6,30.04,SW,215,3.0,7.0,85,0.00,,---,0.00,VWS V14.01,2013-06-17 11:29:00,
2013-06-17 07:34:00,69.5,64.8,30.04,SSW,209,2.0,5.0,85,0.00,,---,0.00,VWS V14.01,2013-06-17 11:34:00,
2013-06-17 07:39:00,69.6,64.6,30.04,South,184,4.0,5.0,84,0.00,,---,0.00,VWS V14.01,2013-06-17 11:39:00,
2013-06-17 07:44:00,69.7,65.0,30.04,SW,225,0.0,4.0,85,0.00,,---,0.00,VWS V14.01,2013-06-17 11:44:00,
2013-06-17 07:49:00,69.9,64.8,30.04,SW,222,0.0,4.0,84,0.00,,---,0.00,VWS V14.01,2013-06-17 11:49:00,
2013-06-17 07:54:00,70.1,65.1,30.04,South,184,1.0,3.0,84,0.00,,---,0.00,VWS V14.01,2013-06-17 11:54:00,
2013-06-17 07:59:00,70.3,65.6,30.04,SW,230,0.0,2.0,85,0.00,,---,0.00,VWS V14.01,2013-06-17 11:59:00,
2013-06-17 08:04:00,70.4,65.3,30.04,SW,225,0.0,1.0,84,0.00,,---,0.00,VWS V14.01,2013-06-17 12:04:00,
2013-06-17 08:09:00,70.5,65.4,30.04,SW,215,2.0,2.0,84,0.00,,---,0.00,VWS V14.01,2013-06-17 12:09:00,
2013-06-17 08:14:00,70.5,65.4,30.04,South,181,1.0,5.0,84,0.00,,---,0.00,VWS V14.01,2013-06-17 12:14:00,
2013-06-17 08:19:00,70.4,65.3,30.05,South,190,1.0,6.0,84,0.00,,---,0.00,VWS V14.01,2013-06-17 12:19:00,
2013-06-17 08:24:00,70.4,65.7,30.05,SSW,207,2.0,6.0,85,0.00,,---,0.00,VWS V14.01,2013-06-17 12:24:00,
2013-06-17 08:29:00,70.5,65.8,30.05,SSW,198,4.0,4.0,85,0.00,,---,0.00,VWS V14.01,2013-06-17 12:29:00,
2013-06-17 08:34:00,70.5,65.8,30.05,SSW,200,0.0,5.0,85,0.00,,---,0.00,VWS V14.01,2013-06-17 12:34:00,
2013-06-17 08:39:00,70.6,65.5,30.05,SW,236,3.0,5.0,84,0.00,,---,0.00,VWS V14.01,2013-06-17 12:39:00,
2013-06-17 08:44:00,70.7,65.6,30.04,East,93,2.0,2.0,84,0.00,,---,0.00,VWS V14.01,2013-06-17 12:44:00,
2013-06-17 08:49:00,71.0,65.6,30.05,SW,219,0.0,5.0,83,0.00,,---,0.00,VWS V14.01,2013-06-17 12:49:00,
2013-06-17 08:54:00,71.3,65.9,30.05,SSW,208,1.0,5.0,83,0.00,,---,0.00,VWS V14.01,2013-06-17 12:54:00,
2013-06-17 08:59:00,71.8,66.4,30.05,SW,228,3.0,5.0,83,0.00,,---,0.00,VWS V14.01,2013-06-17 12:59:00,
2013-06-17 09:04:00,72.1,66.3,30.05,South,176,4.0,6.0,82,0.00,,---,0.00,VWS V14.01,2013-06-17 13:04:00,
2013-06-17 09:09:00,72.3,66.5,30.05,South,169,0.0,5.0,82,0.00,,---,0.00,VWS V14.01,2013-06-17 13:09:00,
2013-06-17 09:14:00,72.6,67.2,30.05,WSW,242,0.0,6.0,83,0.00,,---,0.00,VWS V14.01,2013-06-17 13:14:00,
2013-06-17 09:19:00,72.7,66.9,30.05,SSW,200,6.0,6.0,82,0.00,,---,0.00,VWS V14.01,2013-06-17 13:19:00,
2013-06-17 09:24:00,72.8,67.3,30.05,West,270,1.0,4.0,83,0.00,,---,0.00,VWS V14.01,2013-06-17 13:24:00,
2013-06-17 09:29:00,73.0,67.5,30.04,WSW,250,1.0,4.0,83,0.00,,---,0.00,VWS V14.01,2013-06-17 13:29:00,
2013-06-17 09:34:00,73.0,67.9,30.04,West,269,1.0,3.0,84,0.00,,---,0.00,VWS V14.01,2013-06-17 13:34:00,
2013-06-17 09:39:00,73.0,67.5,30.04,WSW,252,0.0,4.0,83,0.00,,---,0.00,VWS V14.01,2013-06-17 13:39:00,
2013-06-17 09:44:00,72.9,67.4,30.04,West,278,0.0,4.0,83,0.00,,---,0.00,VWS V14.01,2013-06-17 13:44:00,
2013-06-17 09:49:00,73.0,67.5,30.04,SW,222,1.0,3.0,83,0.00,,---,0.00,VWS V14.01,2013-06-17 13:49:00,
2013-06-17 09:54:00,73.0,67.5,30.04,SW,229,2.0,2.0,83,0.00,,---,0.00,VWS V14.01,2013-06-17 13:54:00,
2013-06-17 09:59:00,73.0,67.9,30.04,SW,214,1.0,4.0,84,0.00,,---,0.00,VWS V14.01,2013-06-17 13:59:00,
2013-06-17 10:04:00,73.2,68.1,30.04,West,278,1.0,3.0,84,0.00,,---,0.00,VWS V14.01,2013-06-17 14:04:00,
2013-06-17 10:09:00,73.5,68.4,30.04,West,260,1.0,4.0,84,0.00,,---,0.00,VWS V14.01,2013-06-17 14:09:00,
2013-06-17 10:14:00,73.7,68.2,30.04,WSW,257,2.0,5.0,83,0.00,,---,0.00,VWS V14.01,2013-06-17 14:14:00,
2013-06-17 10:19:00,73.7,68.2,30.04,West,267,0.0,6.0,83,0.00,,---,0.00,VWS V14.01,2013-06-17 14:19:00,
2013-06-17 10:24:00,74.1,68.6,30.03,WNW,284,4.0,5.0,83,0.00,,---,0.00,VWS V14.01,2013-06-17 14:24:00,
2013-06-17 10:29:00,74.6,69.1,30.03,SSW,211,1.0,6.0,83,0.00,,---,0.00,VWS V14.01,2013-06-17 14:29:00,
2013-06-17 10:34:00,75.3,69.1,30.03,South,177,1.0,5.0,81,0.00,,---,0.00,VWS V14.01,2013-06-17 14:34:00,
2013-06-17 10:39:00,76.0,69.4,30.03,SSW,195,5.0,8.0,80,0.00,,---,0.00,VWS V14.01,2013-06-17 14:39:00,
2013-06-17 10:44:00,76.5,69.5,30.03,West,259,6.0,6.0,79,0.00,,---,0.00,VWS V14.01,2013-06-17 14:44:00,
2013-06-17 10:49:00,76.5,69.5,30.03,West,281,3.0,8.0,79,0.00,,---,0.00,VWS V14.01,2013-06-17 14:49:00,
2013-06-17 10:55:00,76.7,70.1,30.03,WSW,239,0.0,4.0,80,0.00,,---,0.00,VWS V14.01,2013-06-17 14:55:00,
2013-06-17 11:00:00,76.8,69.8,30.04,West,271,3.0,5.0,79,0.00,,---,0.00,VWS V14.01,2013-06-17 15:00:00,
2013-06-17 11:05:00,77.1,69.7,30.04,WSW,242,0.0,6.0,78,0.00,,---,0.00,VWS V14.01,2013-06-17 15:05:00,
2013-06-17 11:10:00,77.5,70.1,30.04,WSW,246,7.0,8.0,78,0.00,,---,0.00,VWS V14.01,2013-06-17 15:10:00,
2013-06-17 11:15:00,77.7,69.9,30.03,West,269,1.0,9.0,77,0.00,,---,0.00,VWS V14.01,2013-06-17 15:15:00,
2013-06-17 11:20:00,78.3,71.3,30.03,SE,141,3.0,6.0,79,0.00,,---,0.00,VWS V14.01,2013-06-17 15:20:00,
2013-06-17 11:25:00,78.9,70.3,30.03,SW,222,2.0,6.0,75,0.00,,---,0.00,VWS V14.01,2013-06-17 15:25:00,
2013-06-17 11:30:00,79.4,71.2,30.03,West,267,0.0,6.0,76,0.00,,---,0.00,VWS V14.01,2013-06-17 15:30:00,
2013-06-17 11:35:00,79.7,70.7,30.03,SSW,211,7.0,8.0,74,0.00,,---,0.00,VWS V14.01,2013-06-17 15:35:00,
2013-06-17 11:40:00,79.7,69.9,30.03,SW,228,11.0,12.0,72,0.00,,---,0.00,VWS V14.01,2013-06-17 15:40:00,
2013-06-17 11:45:00,79.8,70.8,30.03,West,281,5.0,13.0,74,0.00,,---,0.00,VWS V14.01,2013-06-17 15:45:00,
2013-06-17 11:50:00,80.1,70.7,30.03,West,264,10.0,14.0,73,0.00,,---,0.00,VWS V14.01,2013-06-17 15:50:00,
2013-06-17 11:55:00,80.3,70.1,30.02,WSW,240,3.0,11.0,71,0.00,,---,0.00,VWS V14.01,2013-06-17 15:55:00,
2013-06-17 12:00:00,80.2,71.2,30.03,West,281,3.0,12.0,74,0.00,,---,0.00,VWS V14.01,2013-06-17 16:00:00,
2013-06-17 12:05:00,80.4,70.6,30.02,SW,222,4.0,11.0,72,0.00,,---,0.00,VWS V14.01,2013-06-17 16:05:00,
2013-06-17 12:10:00,81.0,71.5,30.02,West,259,3.0,7.0,73,0.00,,---,0.00,VWS V14.01,2013-06-17 16:10:00,
2013-06-17 12:15:00,81.2,70.9,30.02,South,190,6.0,10.0,71,0.00,,---,0.00,VWS V14.01,2013-06-17 16:15:00,
2013-06-17 12:20:00,81.1,71.2,30.02,WSW,252,2.0,9.0,72,0.00,,---,0.00,VWS V14.01,2013-06-17 16:20:00,
2013-06-17 12:25:00,81.4,71.1,30.02,WNW,283,2.0,11.0,71,0.00,,---,0.00,VWS V14.01,2013-06-17 16:25:00,
2013-06-17 12:30:00,81.4,70.3,30.02,South,172,8.0,13.0,69,0.00,,---,0.00,VWS V14.01,2013-06-17 16:30:00,
2013-06-17 12:35:00,81.4,70.7,30.02,SW,228,6.0,12.0,70,0.00,,---,0.00,VWS V14.01,2013-06-17 16:35:00,
2013-06-17 12:40:00,81.4,69.4,30.02,West,266,6.0,12.0,67,0.00,,---,0.00,VWS V14.01,2013-06-17 16:40:00,
2013-06-17 12:45:00,81.5,70.8,30.02,WSW,238,2.0,10.0,70,0.00,,---,0.00,VWS V14.01,2013-06-17 16:45:00,
2013-06-17 12:50:00,81.7,71.0,30.02,SSE,167,2.0,9.0,70,0.00,,---,0.00,VWS V14.01,2013-06-17 16:50:00,
2013-06-17 12:55:00,82.2,71.0,30.02,West,263,1.0,8.0,69,0.00,,---,0.00,VWS V14.01,2013-06-17 16:55:00,
2013-06-17 13:00:00,81.9,70.7,30.02,West,266,6.0,10.0,69,0.00,,---,0.00,VWS V14.01,2013-06-17 17:00:00,
2013-06-17 13:05:00,81.8,71.1,30.02,WNW,283,12.0,12.0,70,0.00,,---,0.00,VWS V14.01,2013-06-17 17:05:00,
2013-06-17 13:10:00,81.9,70.3,30.02,West,272,3.0,9.0,68,0.00,,---,0.00,VWS V14.01,2013-06-17 17:10:00,
2013-06-17 13:15:00,81.7,71.4,30.02,SSW,212,2.0,10.0,71,0.00,,---,0.00,VWS V14.01,2013-06-17 17:15:00,
2013-06-17 13:20:00,82.0,70.8,30.02,SW,219,1.0,6.0,69,0.00,,---,0.00,VWS V14.01,2013-06-17 17:20:00,
2013-06-17 13:25:00,82.0,71.7,30.02,WSW,243,4.0,9.0,71,0.00,,---,0.00,VWS V14.01,2013-06-17 17:25:00,
2013-06-17 13:30:00,82.0,71.7,30.02,West,259,4.0,5.0,71,0.00,,---,0.00,VWS V14.01,2013-06-17 17:30:00,
2013-06-17 13:35:00,81.9,71.2,30.02,WSW,238,6.0,7.0,70,0.00,,---,0.00,VWS V14.01,2013-06-17 17:35:00,
2013-06-17 13:40:00,81.6,71.3,30.02,SSW,210,1.0,5.0,71,0.00,,---,0.00,VWS V14.01,2013-06-17 17:40:00,
2013-06-17 13:45:00,81.6,72.1,30.02,WSW,238,3.0,7.0,73,0.00,,---,0.00,VWS V14.01,2013-06-17 17:45:00,
2013-06-17 13:50:00,82.0,71.7,30.01,WSW,246,13.0,13.0,71,0.00,,---,0.00,VWS V14.01,2013-06-17 17:50:00,
2013-06-17 13:55:00,82.3,70.7,30.02,WSW,238,6.0,11.0,68,0.00,,---,0.00,VWS V14.01,2013-06-17 17:55:00,
2013-06-17 14:00:00,82.2,71.4,30.01,West,260,7.0,11.0,70,0.00,,---,0.00,VWS V14.01,2013-06-17 18:00:00,
2013-06-17 14:05:00,82.0,71.7,30.01,SSW,204,1.0,9.0,71,0.00,,---,0.00,VWS V14.01,2013-06-17 18:05:00,
2013-06-17 14:10:00,81.8,71.9,30.01,West,281,4.0,6.0,72,0.00,,---,0.00,VWS V14.01,2013-06-17 18:10:00,
2013-06-17 14:15:00,81.7,71.4,30.01,WSW,253,4.0,11.0,71,0.00,,---,0.00,VWS V14.01,2013-06-17 18:15:00,
2013-06-17 14:20:00,81.8,71.5,30.00,WSW,250,3.0,7.0,71,0.00,,---,0.00,VWS V14.01,2013-06-17 18:20:00,
2013-06-17 14:25:00,81.7,71.0,30.00,West,260,5.0,9.0,70,0.00,,---,0.00,VWS V14.01,2013-06-17 18:25:00,
2013-06-17 14:30:00,81.8,71.5,30.00,West,266,6.0,7.0,71,0.00,,---,0.00,VWS V14.01,2013-06-17 18:30:00,
2013-06-17 14:36:00,81.9,71.2,30.00,WSW,241,5.0,8.0,70,0.00,,---,0.00,VWS V14.01,2013-06-17 18:36:00,
2013-06-17 14:40:00,81.8,71.1,29.99,SW,236,5.0,6.0,70,0.00,,---,0.00,VWS V14.01,2013-06-17 18:40:00,
2013-06-17 14:46:00,81.8,72.3,29.99,West,272,4.0,7.0,73,0.00,,---,0.00,VWS V14.01,2013-06-17 18:46:00,
2013-06-17 14:51:00,81.9,72.8,29.99,WSW,251,1.0,5.0,74,0.00,,---,0.00,VWS V14.01,2013-06-17 18:51:00,
2013-06-17 14:56:00,82.2,72.3,29.99,SSW,212,1.0,6.0,72,0.00,,---,0.00,VWS V14.01,2013-06-17 18:56:00,
2013-06-17 15:01:00,82.5,72.6,29.99,WSW,240,4.0,9.0,72,0.00,,---,0.00,VWS V14.01,2013-06-17 19:01:00,
2013-06-17 15:06:00,82.8,72.9,29.98,WSW,243,2.0,6.0,72,0.00,,---,0.00,VWS V14.01,2013-06-17 19:06:00,
2013-06-17 15:11:00,83.0,73.1,29.98,SW,214,5.0,6.0,72,0.00,,---,0.00,VWS V14.01,2013-06-17 19:11:00,
2013-06-17 15:16:00,83.2,72.0,29.98,WNW,287,3.0,6.0,69,0.00,,---,0.00,VWS V14.01,2013-06-17 19:16:00,
2013-06-17 15:21:00,83.2,72.0,29.97,West,259,1.0,10.0,69,0.00,,---,0.00,VWS V14.01,2013-06-17 19:21:00,
2013-06-17 15:26:00,83.3,71.6,29.97,WSW,245,3.0,7.0,68,0.00,,---,0.00,VWS V14.01,2013-06-17 19:26:00,
2013-06-17 15:31:00,83.6,72.4,29.97,WSW,243,0.0,4.0,69,0.00,,---,0.00,VWS V14.01,2013-06-17 19:31:00,
2013-06-17 15:36:00,84.1,72.0,29.97,SSW,201,1.0,4.0,67,0.00,,---,0.00,VWS V14.01,2013-06-17 19:36:00,
2013-06-17 15:41:00,84.2,72.5,29.96,NW,317,2.0,6.0,68,0.00,,---,0.00,VWS V14.01,2013-06-17 19:41:00,
2013-06-17 15:46:00,84.5,72.3,29.96,WSW,250,5.0,6.0,67,0.00,,---,0.00,VWS V14.01,2013-06-17 19:46:00,
2013-06-17 15:51:00,84.8,71.3,29.96,WSW,245,7.0,8.0,64,0.00,,---,0.00,VWS V14.01,2013-06-17 19:51:00,
2013-06-17 15:56:00,85.0,72.8,29.96,WSW,256,1.0,1.0,67,0.00,,---,0.00,VWS V14.01,2013-06-17 19:56:00,
2013-06-17 16:01:00,85.2,72.6,29.96,SW,228,3.0,3.0,66,0.00,,---,0.00,VWS V14.01,2013-06-17 20:01:00,
2013-06-17 16:06:00,84.9,73.2,29.95,WSW,248,4.0,4.0,68,0.00,,---,0.00,VWS V14.01,2013-06-17 20:06:00,
2013-06-17 16:11:00,84.2,72.9,29.95,West,266,3.0,4.0,69,0.00,,---,0.00,VWS V14.01,2013-06-17 20:11:00,
2013-06-17 16:16:00,84.1,72.8,29.95,SSE,163,3.0,3.0,69,0.00,,---,0.00,VWS V14.01,2013-06-17 20:16:00,
2013-06-17 16:21:00,84.7,72.1,29.95,WSW,237,2.0,4.0,66,0.00,,---,0.00,VWS V14.01,2013-06-17 20:21:00,
2013-06-17 16:26:00,84.7,73.0,29.94,SW,236,2.0,3.0,68,0.00,,---,0.00,VWS V14.01,2013-06-17 20:26:00,
2013-06-17 16:31:00,84.4,71.4,29.94,WSW,246,4.0,4.0,65,0.00,,---,0.00,VWS V14.01,2013-06-17 20:31:00,
2013-06-17 16:36:00,84.0,72.3,29.94,WNW,285,3.0,3.0,68,0.00,,---,0.00,VWS V14.01,2013-06-17 20:36:00,
2013-06-17 16:41:00,83.6,71.9,29.94,WNW,285,4.0,6.0,68,0.00,,---,0.00,VWS V14.01,2013-06-17 20:41:00,
2013-06-17 16:46:00,83.5,71.8,29.94,NW,307,2.0,5.0,68,0.00,,---,0.00,VWS V14.01,2013-06-17 20:46:00,
2013-06-17 16:51:00,84.0,72.3,29.94,SSW,211,3.0,3.0,68,0.00,,---,0.00,VWS V14.01,2013-06-17 20:51:00,
2013-06-17 16:56:00,84.2,72.1,29.94,WSW,239,1.0,2.0,67,0.00,,---,0.00,VWS V14.01,2013-06-17 20:56:00,
2013-06-17 17:01:00,83.8,71.7,29.94,SW,228,3.0,4.0,67,0.00,,---,0.00,VWS V14.01,2013-06-17 21:01:00,
2013-06-17 17:06:00,83.4,71.7,29.94,WSW,242,4.0,4.0,68,0.00,,---,0.00,VWS V14.01,2013-06-17 21:06:00,
2013-06-17 17:11:00,83.1,72.3,29.94,SW,227,3.0,3.0,70,0.00,,---,0.00,VWS V14.01,2013-06-17 21:11:00,
2013-06-17 17:16:00,83.2,73.7,29.94,SSW,208,0.0,0.0,73,0.00,,---,0.00,VWS V14.01,2013-06-17 21:16:00,
2013-06-17 17:21:00,83.5,73.5,29.94,WSW,245,1.0,1.0,72,0.00,,---,0.00,VWS V14.01,2013-06-17 21:21:00,
2013-06-17 17:26:00,83.4,73.4,29.94,SW,226,0.0,2.0,72,0.00,,---,0.00,VWS V14.01,2013-06-17 21:26:00,
2013-06-17 17:31:00,83.0,73.5,29.94,SSE,163,1.0,1.0,73,0.00,,---,0.00,VWS V14.01,2013-06-17 21:31:00,
2013-06-17 17:36:00,82.5,73.4,29.94,SW,225,2.0,2.0,74,0.00,,---,0.00,VWS V14.01,2013-06-17 21:36:00,
2013-06-17 17:41:00,81.9,72.8,29.94,SSE,162,2.0,4.0,74,0.00,,---,0.00,VWS V14.01,2013-06-17 21:41:00,
2013-06-17 17:46:00,81.0,73.1,29.94,South,181,2.0,2.0,77,0.01,,---,0.01,VWS V14.01,2013-06-17 21:46:00,
2013-06-17 17:51:00,80.2,73.5,29.94,SSW,195,3.0,3.0,80,0.01,,---,0.01,VWS V14.01,2013-06-17 21:51:00,
2013-06-17 17:56:00,79.3,73.3,29.93,WSW,249,0.0,5.0,82,0.01,,---,0.01,VWS V14.01,2013-06-17 21:56:00,
2013-06-17 18:01:00,78.3,72.7,29.93,SW,226,3.0,8.0,83,0.02,,---,0.02,VWS V14.01,2013-06-17 22:01:00,
2013-06-17 18:06:00,77.5,71.9,29.94,SW,218,1.0,3.0,83,0.02,,---,0.02,VWS V14.01,2013-06-17 22:06:00,
2013-06-17 18:11:00,77.3,71.0,29.94,SSE,167,1.0,2.0,81,0.02,,---,0.02,VWS V14.01,2013-06-17 22:11:00,
2013-06-17 18:16:00,76.9,72.1,29.95,WNW,287,4.0,8.0,85,0.02,,---,0.02,VWS V14.01,2013-06-17 22:16:00,
2013-06-17 18:21:00,76.0,71.5,29.96,North,350,6.0,6.0,86,0.04,,---,0.04,VWS V14.01,2013-06-17 22:21:00,
2013-06-17 18:26:00,74.6,70.8,29.95,ENE,78,4.0,10.0,88,0.14,,---,0.14,VWS V14.01,2013-06-17 22:26:00,
2013-06-17 18:31:00,73.5,70.4,29.95,NNW,340,3.0,3.0,90,0.17,,---,0.17,VWS V14.01,2013-06-17 22:31:00,
2013-06-17 18:36:00,72.9,70.4,29.96,WNW,288,3.0,7.0,92,0.23,,---,0.23,VWS V14.01,2013-06-17 22:36:00,
2013-06-17 18:41:00,72.5,70.1,29.98,West,260,12.0,12.0,92,0.26,,---,0.26,VWS V14.01,2013-06-17 22:41:00,
2013-06-17 18:46:00,72.1,69.7,29.98,NNW,338,6.0,10.0,92,0.42,,---,0.43,VWS V14.01,2013-06-17 22:46:00,
2013-06-17 18:51:00,71.8,69.7,29.97,North,356,1.0,2.0,93,0.47,,---,0.48,VWS V14.01,2013-06-17 22:51:00,
2013-06-17 18:56:00,71.6,69.8,29.97,WNW,289,0.0,1.0,94,0.47,,---,0.48,VWS V14.01,2013-06-17 22:56:00,
2013-06-17 19:01:00,71.6,69.8,29.97,WSW,246,0.0,1.0,94,0.47,,---,0.49,VWS V14.01,2013-06-17 23:01:00,
2013-06-17 19:07:00,71.6,69.8,29.97,WNW,288,0.0,1.0,94,0.47,,---,0.49,VWS V14.01,2013-06-17 23:07:00,
2013-06-17 19:12:00,71.6,70.1,29.96,WNW,300,0.0,1.0,95,0.47,,---,0.49,VWS V14.01,2013-06-17 23:12:00,
2013-06-17 19:17:00,71.6,70.1,29.97,NW,318,1.0,1.0,95,0.48,,---,0.50,VWS V14.01,2013-06-17 23:17:00,
2013-06-17 19:22:00,71.7,70.2,29.96,NNW,343,1.0,2.0,95,0.47,,---,0.51,VWS V14.01,2013-06-17 23:22:00,
2013-06-17 19:27:00,71.8,70.3,29.96,NW,314,0.0,0.0,95,0.39,,---,0.51,VWS V14.01,2013-06-17 23:27:00,
2013-06-17 19:32:00,72.0,70.5,29.96,NW,314,0.0,0.0,95,0.34,,---,0.51,VWS V14.01,2013-06-17 23:32:00,
2013-06-17 19:37:00,72.2,70.7,29.96,South,172,1.0,1.0,95,0.29,,---,0.51,VWS V14.01,2013-06-17 23:37:00,
2013-06-17 19:42:00,72.1,70.6,29.95,SSE,158,2.0,5.0,95,0.26,,---,0.51,VWS V14.01,2013-06-17 23:42:00,
2013-06-17 19:47:00,72.1,70.6,29.95,South,169,3.0,4.0,95,0.09,,---,0.51,VWS V14.01,2013-06-17 23:47:00,
2013-06-17 19:52:00,72.1,70.6,29.96,SSW,207,0.0,1.0,95,0.04,,---,0.51,VWS V14.01,2013-06-17 23:52:00,
2013-06-17 19:57:00,72.1,70.6,29.97,SSW,211,1.0,2.0,95,0.03,,---,0.51,VWS V14.01,2013-06-17 23:57:00,
2013-06-17 20:02:00,72.1,70.6,29.98,South,190,1.0,3.0,95,0.02,,---,0.51,VWS V14.01,2013-06-18 00:02:00,
2013-06-17 20:07:00,72.2,71.0,29.98,SSW,197,2.0,4.0,96,0.02,,---,0.51,VWS V14.01,2013-06-18 00:07:00,
2013-06-17 20:12:00,72.3,71.1,29.99,SSW,205,5.0,6.0,96,0.02,,---,0.51,VWS V14.01,2013-06-18 00:12:00,
2013-06-17 20:17:00,72.3,71.1,29.99,SSE,155,2.0,3.0,96,0.01,,---,0.51,VWS V14.01,2013-06-18 00:17:00,
2013-06-17 20:22:00,72.3,71.1,29.99,SSE,149,2.0,4.0,96,0.00,,---,0.51,VWS V14.01,2013-06-18 00:22:00,
2013-06-17 20:27:00,72.2,71.0,29.99,SE,138,3.0,4.0,96,0.01,,---,0.52,VWS V14.01,2013-06-18 00:27:00,
2013-06-17 20:32:00,72.2,71.0,29.98,SSE,158,2.0,4.0,96,0.01,,---,0.52,VWS V14.01,2013-06-18 00:32:00,
2013-06-17 20:37:00,72.2,71.0,29.98,SE,129,5.0,5.0,96,0.01,,---,0.52,VWS V14.01,2013-06-18 00:37:00,
2013-06-17 20:42:00,72.2,71.0,29.99,SE,130,4.0,5.0,96,0.01,,---,0.52,VWS V14.01,2013-06-18 00:42:00,
2013-06-17 20:47:00,72.1,70.9,30.00,ESE,118,8.0,8.0,96,0.01,,---,0.52,VWS V14.01,2013-06-18 00:47:00,
2013-06-17 20:52:00,72.1,70.9,29.99,SSE,153,7.0,7.0,96,0.01,,---,0.52,VWS V14.01,2013-06-18 00:52:00,
2013-06-17 20:57:00,71.9,70.7,29.99,East,90,3.0,8.0,96,0.01,,---,0.52,VWS V14.01,2013-06-18 00:57:00,
2013-06-17 21:02:00,71.6,70.1,29.99,SSE,156,5.0,8.0,95,0.01,,---,0.52,VWS V14.01,2013-06-18 01:02:00,
2013-06-17 21:07:00,71.2,69.7,29.99,ESE,111,3.0,7.0,95,0.01,,---,0.52,VWS V14.01,2013-06-18 01:07:00,
2013-06-17 21:12:00,71.0,69.5,29.99,SE,143,2.0,6.0,95,0.01,,---,0.52,VWS V14.01,2013-06-18 01:12:00,
2013-06-17 21:17:00,70.9,69.7,29.99,SE,134,4.0,5.0,96,0.01,,---,0.52,VWS V14.01,2013-06-18 01:17:00,
2013-06-17 21:22:00,70.7,69.2,29.98,SSE,161,3.0,5.0,95,0.01,,---,0.52,VWS V14.01,2013-06-18 01:22:00,
2013-06-17 21:27:00,70.6,69.1,29.98,SSE,153,4.0,5.0,95,0.00,,---,0.52,VWS V14.01,2013-06-18 01:27:00,
2013-06-17 21:32:00,70.4,68.9,29.98,ESE,110,3.0,5.0,95,0.00,,---,0.52,VWS V14.01,2013-06-18 01:32:00,
2013-06-17 21:37:00,70.3,69.1,29.98,SE,146,3.0,4.0,96,0.00,,---,0.52,VWS V14.01,2013-06-18 01:37:00,
2013-06-17 21:42:00,70.2,69.0,29.98,SSE,158,2.0,3.0,96,0.00,,---,0.52,VWS V14.01,2013-06-18 01:42:00,
2013-06-17 21:47:00,70.2,69.0,29.98,SSE,152,2.0,3.0,96,0.00,,---,0.52,VWS V14.01,2013-06-18 01:47:00,
2013-06-17 21:52:00,70.1,68.9,29.98,SE,141,4.0,4.0,96,0.00,,---,0.52,VWS V14.01,2013-06-18 01:52:00,
2013-06-17 21:57:00,70.0,68.8,29.98,SSW,196,1.0,4.0,96,0.00,,---,0.52,VWS V14.01,2013-06-18 01:57:00,
2013-06-17 22:02:00,69.9,68.7,29.98,SSE,167,1.0,1.0,96,0.00,,---,0.52,VWS V14.01,2013-06-18 02:02:00,
2013-06-17 22:07:00,69.9,68.7,29.98,SSE,153,1.0,2.0,96,0.00,,---,0.52,VWS V14.01,2013-06-18 02:07:00,
2013-06-17 22:12:00,69.8,68.6,29.98,South,172,3.0,3.0,96,0.00,,---,0.52,VWS V14.01,2013-06-18 02:12:00,
2013-06-17 22:17:00,69.7,68.5,29.99,South,191,2.0,2.0,96,0.00,,---,0.52,VWS V14.01,2013-06-18 02:17:00,
2013-06-17 22:22:00,69.7,68.5,29.99,South,169,2.0,3.0,96,0.00,,---,0.52,VWS V14.01,2013-06-18 02:22:00,
2013-06-17 22:28:00,69.7,68.5,29.99,South,187,2.0,3.0,96,0.00,,---,0.52,VWS V14.01,2013-06-18 02:28:00,
2013-06-17 22:33:00,69.7,68.5,29.99,SSW,203,1.0,2.0,96,0.00,,---,0.52,VWS V14.01,2013-06-18 02:33:00,
2013-06-17 22:38:00,69.6,68.4,30.00,SSW,195,0.0,2.0,96,0.00,,---,0.52,VWS V14.01,2013-06-18 02:38:00,
2013-06-17 22:43:00,69.5,68.3,30.00,SW,214,3.0,4.0,96,0.00,,---,0.52,VWS V14.01,2013-06-18 02:43:00,
2013-06-17 22:48:00,69.5,68.3,30.00,SSW,203,1.0,5.0,96,0.00,,---,0.52,VWS V14.01,2013-06-18 02:48:00,
2013-06-17 22:53:00,69.5,68.6,30.00,SSW,193,3.0,3.0,97,0.00,,---,0.52,VWS V14.01,2013-06-18 02:53:00,
2013-06-17 22:58:00,69.4,68.5,30.00,SSW,192,2.0,3.0,97,0.00,,---,0.52,VWS V14.01,2013-06-18 02:58:00,
2013-06-17 23:03:00,69.4,68.5,30.00,SSE,158,1.0,2.0,97,0.00,,---,0.52,VWS V14.01,2013-06-18 03:03:00,
2013-06-17 23:08:00,69.4,68.5,30.00,SE,141,3.0,4.0,97,0.00,,---,0.52,VWS V14.01,2013-06-18 03:08:00,
2013-06-17 23:13:00,69.4,68.5,30.00,South,170,3.0,3.0,97,0.00,,---,0.52,VWS V14.01,2013-06-18 03:13:00,
2013-06-17 23:18:00,69.4,68.5,30.00,South,182,2.0,4.0,97,0.00,,---,0.52,VWS V14.01,2013-06-18 03:18:00,
2013-06-17 23:23:00,69.4,68.5,30.00,South,169,3.0,4.0,97,0.00,,---,0.52,VWS V14.01,2013-06-18 03:23:00,
2013-06-17 23:28:00,69.4,68.5,30.00,South,188,4.0,4.0,97,0.00,,---,0.52,VWS V14.01,2013-06-18 03:28:00,
2013-06-17 23:33:00,69.4,68.5,30.00,SSE,163,3.0,6.0,97,0.00,,---,0.52,VWS V14.01,2013-06-18 03:33:00,
2013-06-17 23:38:00,69.5,68.6,30.00,SSE,156,4.0,6.0,97,0.00,,---,0.52,VWS V14.01,2013-06-18 03:38:00,
2013-06-17 23:43:00,69.5,68.6,30.00,SSW,194,3.0,5.0,97,0.00,,---,0.52,VWS V14.01,2013-06-18 03:43:00,
2013-06-17 23:48:00,69.5,68.6,30.00,SSE,155,2.0,6.0,97,0.00,,---,0.52,VWS V14.01,2013-06-18 03:48:00,
2013-06-17 23:53:00,69.5,68.6,30.00,SSW,194,1.0,6.0,97,0.00,,---,0.52,VWS V14.01,2013-06-18 03:53:00,
2013-06-17 23:58:00,69.4,68.5,30.00,South,188,4.0,4.0,97,0.00,,---,0.52,VWS V14.01,2013-06-18 03:58:00,